Regional Weather Roundup
Issued by NWS Boston, MA

Home | Current Version | Previous Version | Text Only | Print | Product List | Glossary On
Versions: 1 2 3 4 5 6 7 8 9 10 11 12 13 14 15 16 17 18 19 20 21 22 23 24 25 26 27 28 29 30 31 32 33 34 35 36 37 38 39 40 41 42 43 44 45 46 47 48 49 50
000
ASUS41 KBOX 311610
RWRBOX

REGIONAL WEATHER ROUNDUP
NATIONAL WEATHER SERVICE TAUNTON MA
1200 PM EDT THU JUL 31 2014

NOTE:  "FAIR" INDICATES FEW OR NO CLOUDS BELOW 12,000 FEET WITH NO
SIGNIFICANT WEATHER AND/OR OBSTRUCTIONS TO VISIBILITY.  THE FOLLOWING
OBSERVATION LOCATIONS DO NOT REPORT PRESENT WEATHER...PROVINCETOWN...
SMITHFIELD...BLOCK ISLAND...KEENE...AND OXFORD.

MAZALL-311700-
EASTERN MASSACHUSETTS

CITY           SKY/WX    TMP DP  RH WIND       PRES   REMARKS
BOSTON         MOSUNNY   78  58  49 S9        30.09F
BEVERLY        MOSUNNY   77  62  59 SE9       30.09S
LAWRENCE       MOSUNNY   78  58  49 S12G20    30.10F
BEDFORD        MOSUNNY   79  58  48 S15       30.08S
BLUE HILL        N/A     79  59  50 SW14G20   30.11S
NORWOOD        MOSUNNY   78  58  49 S9        30.09F
MARSHFIELD     MOSUNNY   79  61  53 SE7       30.12S
PLYMOUTH       MOSUNNY   77  60  55 MISG      30.12S
TAUNTON        MOSUNNY   80  59  48 SW8       30.11S
NEW BEDFORD    MOSUNNY   77  59  53 S12       30.11F
$$

MAZALL-311700-
CAPE COD AND THE ISLANDS

CITY           SKY/WX    TMP DP  RH WIND       PRES   REMARKS
FALMOUTH       MOSUNNY   77  61  57 S13       30.13S
HYANNIS        SUNNY     75  60  59 S13       30.13R
CHATHAM        SUNNY     75  63  66 S12       30.16R
PROVINCETOWN   SUNNY     77  63  61 S12G20    30.13S
NANTUCKET      SUNNY     73  64  73 S10       30.15S
MARTHAS VNYRD  SUNNY     74  60  61 S14       30.14S
$$

MAZALL-311700-
CENTRAL AND WESTERN MASSACHUSETTS

CITY           SKY/WX    TMP DP  RH WIND       PRES   REMARKS
WORCESTER      MOSUNNY   74  55  51 SW13      30.12S
FITCHBURG      PTSUNNY   77  57  50 SW8       30.10S
ORANGE         CLOUDY    71  57  61 SW5       30.10F
SPRINGFIELD    PTSUNNY   75  60  60 SW8       30.08F
WESTFIELD      CLOUDY    77  59  53 S12G20    30.08F
NORTH ADAMS    CLOUDY    69  58  67 VRB5      30.08F
PITTSFIELD     CLOUDY    67  58  72 S12       30.09S
$$

RIZALL-311700-
RHODE ISLAND

CITY           SKY/WX    TMP DP  RH WIND       PRES   REMARKS
PROVIDENCE     MOSUNNY   78  63  59 SE14      30.11S
NEWPORT        SUNNY     76  65  68 S14       30.13R
BLOCK ISLAND   SUNNY     75  61  60 SW12      30.14S
SMITHFIELD     PTSUNNY   75  55  50 SW7       30.11F
WESTERLY       SUNNY     79  57  46 SW9       30.13R
$$

CTZALL-311700-
CONNECTICUT

CITY           SKY/WX    TMP DP  RH WIND       PRES   REMARKS
BRADLEY INTL   PTSUNNY   77  57  50 W12       30.08F
HARTFORD       LGT RAIN  77  56  48 SW10G18   30.09S
BRIDGEPORT     MOSUNNY   78  58  49 SW9       30.10F
DANBURY        SUNNY     75  57  53 SW14      30.11F
GROTON         SUNNY     74  65  73 S8        30.11S
NEW HAVEN      MOSUNNY   78  60  53 VRB5      30.11S
CHESTER        FAIR      75  54  46 SW9G16    30.12F
MERIDEN        PTSUNNY   80  55  42 S9G18     30.10S
WILLIMANTIC    MOSUNNY   79  55  43 SW15G23   30.10F
OXFORD         MOSUNNY   75  59  57 S12       30.13F
$$

MEZ002-015-021-024-NHZ003-005-008-011-012-014-VTZ005-008-311700-
NORTHERN NEW ENGLAND

CITY           SKY/WX    TMP DP  RH WIND       PRES   REMARKS
PORTLAND ME    MOSUNNY   69  63  81 E10       30.10S
BANGOR ME      MOSUNNY   74  58  57 S10       30.11S
CONCORD NH     MOSUNNY   76  60  57 S8        30.08F
MANCHESTER NH  PTSUNNY   77  54  44 SW10      30.07S
NASHUA NH      MOSUNNY   79  57  46 VRB5      30.09S
PORTSMOUTH NH  PTSUNNY   76  62  61 S6        30.08S
JAFFREY NH     CLOUDY    68  57  68 VRB6      30.11F
KEENE NH       CLOUDY    70  52  52 S9        30.09F
BURLINGTON VT  MOSUNNY   73  55  53 S20G26    30.01F
MT. WASHINGTON FOG       45  45 100 S26G36      N/A  VSB 0
$$

NYZ052-076-311700-
EASTERN NEW YORK

CITY           SKY/WX    TMP DP  RH WIND       PRES   REMARKS
ALBANY         CLOUDY    71  60  68 S9G17     30.05F
NEW YORK CITY  MOSUNNY   79  55  43 SW16      30.09F
$$

ANZALL-311700-
MARINE OBSERVATIONS

STATION/POSITION TIME  TEMP    WIND        PRES    VSBY  WAVE
                       AIR SEA DIR/SP/G                  HT/PER
                 (UTC) (F)     (DEG/KT/KT) (MB)    (MI)  (FT/S)
BOSTON BUOY      NOT AVBL
BUZZARDS BAY     NOT AVBL
NANTUCKET SOUND  NOT AVBL
MASS BAY-STELLWA NOT AVBL
ISLE OF SHOALS   NOT AVBL
S OF BLOCK IS    NOT AVBL
$$

......................KEY.........................
  SKY/WX - SKY CONDITION/PRESENT WEATHER
  TMP    - TEMPERATURE IN FAHRENHEIT
  DWPT   - DEWPOINT IN FAHRENHEIT
  RH     - RELATIVE HUMIDITY IN PERCENT
  WIND   - DIRECTION AND SPEED IN MPH
  PRES   - MEAN SEA LEVEL PRESSURE IN INCHES OF HG
  WCI    - WIND CHILL INDEX
  VSB    - VISIBILITY IN MILES
  HX     - HEAT INDEX
  TC     - TEMPERATURE IN CELSIUS
  VRB    - VARIABLE WIND DIRECTION
  N/A    - NOT AVAILABLE


USA.gov is the U.S. government's official web portal to all federal, state and local government web resources and services.